Find Starlink 37138

NORAD ID: 68308 Int'l Des: 2026-057 Owner: SPXS Country: US Constellation: starlink operational
LEOCIRCULARRETROGRADE

現在のビュー

3D地球を読み込み中...

About Starlink 37138

Starlink 37138 (NORAD 68308) is a starlink constellation satellite (v2 mini) launched Mar 20, 2026 by SPXS of US. It operates in LEO, CIRCULAR, RETROGRADE orbit with a mass of 575.00 kg.

Starlink 37138について

説明を読み込み中...

次回通過

Passes for default location (London). Set your location on the main map for personalized predictions.

高度履歴

Loading altitude history...

軌道要素

1 68308U 26057Q 26170.62435963 .00015107 00000-0 41939-3 0 9992
2 68308 97.2865 297.2368 0000749 95.0974 265.0356 15.36990811 14279
Epoch: Jun 19, 2026 • Age: 11 hours

現在のステータス

高度 457.3 km
速度 7.64 km/s
衛星直下点 14.84°N, 2.34°W
打ち上げ日 Mar 20, 2026
運用期間 0.2 years
タイプ internet

技術仕様

分類 Payload
質量 575.00 kg
乾燥質量 530.00 kg
総質量 575.00 kg
長さ 0.30 m
直径 4.10 m
スパン 29.00 m
形状 Box + pan
製造者 SPXS
バスタイプ Starlink V2MO
フェーズステータス In Orbit
所有者/国 SPXS/US

Most Searched